Flag for Canada Weather past 2 weeks in Sarnia, Ontario, Canada

52 °F

Mostly cloudy.

Feels Like: 51 °F
Forecast: 44 / 61 °F
Wind: 5 mph from Northwest

Location: Sarnia Airport

Current Time: Oct 10, 2015 at 3:30:11 AM

Latest Report: Oct 10, 2015 at 3:00 AM

Visibility: 9 mi

Pressure: 30.19 "Hg

Humidity: 77%

Dew point: 45 °F

Location of SarniaLocation

Historic Weather in Sarnia — Graph


Sarnia temperature yesterday

Maximum temperature yesterday: 63 °F (at 4:00 AM)
Minimum temperature yesterday: 54 °F (at 7:00 PM)
Average temperature yesterday: 58 °F

Past Weeks' High & Low Weather Summary

High79 °F (Sep 28, 3:00 PM)100% (Sep 29, 7:03 AM)30.44 "Hg (Sep 29, 7:03 AM)
Low39 °F (Oct 8, 6:52 AM)44% (Sep 26, 5:00 PM)29.81 "Hg (Oct 9, 2:00 AM)
Average58 °F79%30.17 "Hg
* Reported Sep 25 2:00 AM — Oct 10 2:00 AM, Sarnia, Weather by CustomWeather, © 2015

Note: Actual official high and low records may vary slightly from our data, if they occured in-between our weather recording intervals... More about our weather records


Sarnia weather history for previous 24 hours

Time TempWeatherWind HumidityBarometerVisibility
2:00 AM
Sat, Oct 10
54 °FOvercast.8 mph72%30.18 "Hg9 mi
1:00 AM54 °FPassing clouds.8 mph72%30.18 "Hg9 mi
12:00 AM52 °FPassing clouds.8 mph77%30.18 "Hg9 mi
11:00 PM
Fri, Oct 9
55 °FOvercast.10 mph67%30.17 "Hg9 mi
10:00 PM55 °FPassing clouds.14 mph59%30.15 "Hg9 mi
9:00 PM54 °FPassing clouds.13 mph67%30.14 "Hg9 mi
8:00 PM55 °FClear.22 mph63%30.13 "Hg9 mi
7:00 PM54 °FSunny.20 mph67%30.11 "Hg9 mi
6:00 PM55 °FPassing clouds.21 mph72%30.08 "Hg9 mi
5:00 PM55 °FCloudy.15 mph77%30.06 "Hg9 mi
4:00 PM57 °FMostly cloudy.16 mph77%30.03 "Hg9 mi
3:00 PM57 °FMostly cloudy.20 mph77%30.02 "Hg9 mi
2:00 PM57 °FCloudy.20 mph77%30.01 "Hg9 mi
1:00 PM57 °FMore clouds than sun.18 mph88%29.99 "Hg9 mi
12:00 PM57 °FMostly cloudy.17 mph88%29.97 "Hg9 mi
11:02 AM55 °FLight rain. Fog.12 mph94%29.96 "Hg4 mi
10:00 AM55 °FMore clouds than sun.10 mph94%29.93 "Hg9 mi
9:00 AM57 °FMostly cloudy.13 mph88%29.91 "Hg9 mi
8:55 AM57 °FMostly cloudy.13 mph88%29.91 "Hg9 mi
8:00 AM57 °FPartly cloudy.14 mph88%29.88 "Hg9 mi
7:53 AM57 °FPartly cloudy.13 mph88%29.87 "Hg9 mi
7:00 AM61 °FMostly cloudy.7 mph88%29.85 "Hg7 mi
6:00 AM61 °FPassing clouds.10 mph88%29.83 "Hg9 mi
5:00 AM63 °FFog.6 mph94%29.82 "Hg5 mi
4:47 AM63 °FFog.5 mph94%29.81 "Hg5 mi
4:00 AM63 °FMostly cloudy.6 mph94%29.81 "Hg7 mi
3:00 AM61 °FFog.6 mph94%29.81 "Hg4 mi
Weather by CustomWeather, © 2015

See weather overviewHow to use our weather pages